Location: Waldport
(44.4270°N, 124.0680°W)
Time: 07:02:08
(UTC-08:00)

Daily predictions for brighter satellites

Satellite Brightness Start Highest point End
(mag) Time Altitude Azimuth Time Altitude Azimuth Time Altitude Azimuth
Cosmos 2360 Rocket 3.0 17:33:36 10° SW 17:39:05 52° WNW 17:44:36 10° NNE
Meteor 2-2 Rocket 4.3 17:33:57 10° N 17:39:31 58° ENE 17:45:03 10° SSE
Cosmos 2084 4.2 17:36:43 10° S 17:40:07 29° ESE 17:43:27 10° ENE
Cosmos 540 Rocket 4.4 17:40:41 10° SSE 17:44:59 27° E 17:49:19 10° NE
Cosmos 44 4.4 17:42:56 10° S 17:47:25 29° ESE 17:51:46 10° NE
Cosmos 1766 Rocket 4.0 17:43:24 10° SSW 17:47:50 68° W 17:52:17 10° N
ALOS 4.0 17:48:03 10° E 17:49:47 12° ENE 17:51:32 10° NE
Meteor 1-21 Rocket 4.5 17:46:50 10° SSW 17:52:45 84° WNW 17:58:38 10° N
CORIOLIS 4.2 17:48:28 10° SSE 17:53:49 88° WSW 17:59:13 10° NNW
ATLAS 5 CENTAUR R/B 4.3 17:54:50 10° N 17:55:51 10° N 17:56:52 10° NNE
Cosmos 2333 Rocket 2.5 17:51:02 10° S 17:56:24 46° ESE 18:01:47 10° NE
COSMO-SKYMED 1 3.1 17:52:58 10° NNE 17:57:02 37° E 18:01:03 10° SSE
Resurs 01 Rocket 3.4 17:55:16 10° E 17:57:05 12° ENE 17:58:55 10° NE
YAOGAN 1 2.8 17:55:01 10° S 17:59:20 75° WSW 18:03:41 10° NNW
USA 215 3.4 17:52:56 10° ESE 17:59:21 60° NNE 18:05:48 10° NW
CZ-4 R/B 4.4 17:55:31 10° SSE 17:59:40 86° ENE 18:03:50 10° NNW
Cosmos 371 Rocket 3.4 17:55:09 10° S 17:59:50 54° ESE 18:04:32 10° NNE
Cosmos 2058 3.9 17:57:38 10° SSE 18:01:04 26° E 18:04:30 10° NNE
FREGAT/IRIS 4.4 18:04:45 15° NE 18:04:45 15° NE 18:06:06 10° NNE
Cosmos 2219 Rocket 2.2 17:59:46 10° SSW 18:05:22 70° ESE 18:10:59 10° NNE
USA 116 3.9 18:02:15 10° N 18:05:27 55° WNW 18:08:29 10° SSW
Cosmos 2228 Rocket 3.5 18:02:42 10° NNW 18:07:05 67° W 18:11:29 10° S
Thor Agena Rocket 3.6 18:02:16 10° NNE 18:07:34 86° WNW 18:12:45 10° SSW
Cosmos 1125 Rocket 3.4 18:02:23 10° NNW 18:07:36 68° ENE 18:12:45 10° SSE
SMAP 4.0 18:04:53 10° S 18:09:24 52° W 18:13:59 10° NNW
Cosmos 1626 4.0 18:07:40 10° ESE 18:08:48 13° E 18:08:48 13° E
SPOT 3 Rocket 4.2 18:04:43 10° S 18:09:48 62° WSW 18:14:57 10° NNW
Cosmos 2278 Rocket 2.2 18:05:35 10° NNW 18:11:15 65° ENE 18:16:53 10° SE
Cosmos 1674 3.7 18:08:59 10° SSW 18:12:40 48° WNW 18:16:26 10° N
Cosmos 1340 Rocket 3.7 18:10:42 10° SSE 18:14:02 27° E 18:16:41 14° NE
Meteor 1-27 4.4 18:09:46 10° N 18:15:28 53° ENE 18:21:08 10° SSE
Cosmos 44 Rocket 3.3 18:14:40 10° SSW 18:19:48 82° ESE 18:24:26 12° NE
SL-14 R/B 3.3 18:16:09 10° S 18:19:59 56° E 18:23:54 10° NNE
Cosmos 2279 Rocket 4.0 18:13:59 10° N 18:20:06 56° ENE 18:26:12 10° SSE
Cosmos 841 Rocket 4.0 18:16:59 10° SSW 18:22:12 63° WNW 18:27:27 10° NNE
NOAA 12 4.2 18:17:24 10° SE 18:22:25 49° ENE 18:27:29 10° N
Cosmos 1844 4.3 18:17:15 10° NNW 18:22:57 63° WSW 18:28:39 10° S
Cosmos 1726 2.1 18:20:42 10° N 18:24:29 88° E 18:28:15 10° S
Cosmos 1484 Rocket 3.1 18:20:36 10° S 18:24:31 71° W 18:28:30 10° NNW
SKYMED 3 4.5 18:22:48 10° NNE 18:27:10 79° ESE 18:31:30 10° S
IDEFIX/ARIANE 42P 4.4 18:23:50 10° SSW 18:28:30 33° W 18:33:14 10° NNW
Lacrosse 5 3.5 18:24:53 10° WNW 18:28:53 23° NNW 18:32:10 13° NNE
Cosmos 1300 2.7 18:25:10 10° N 18:29:01 85° W 18:32:51 10° S
Cosmos 2151 2.8 18:28:31 10° S 18:32:43 82° E 18:36:57 10° N
COSMOS 2428 3.9 18:32:11 10° SW 18:37:32 40° WNW 18:42:56 10° NNE
Cosmos 2237 Rocket 2.1 18:32:04 10° SSW 18:37:41 77° ESE 18:42:57 12° NNE
Aureole 2 Rocket 2.8 18:35:53 10° S 18:39:28 52° ESE 18:41:14 28° NE
CENTAUR R/B 3.4 18:33:41 10° WSW 18:39:41 47° NW 18:46:24 10° NNE
Cosmos 2180 Rocket 4.4 18:34:28 10° N 18:40:37 67° E 18:46:46 10° SSE
Cosmos 2369 Rocket 4.1 18:38:32 10° NNE 18:40:14 12° NNE 18:40:14 12° NNE
DNEPR-1 R/B 4.5 18:34:32 10° SW 18:41:25 81° NW 18:46:00 16° NNE
Nadezhda 4 Rocket 4.4 18:36:38 10° SSE 18:42:22 40° E 18:48:10 10° NNE
Abrixas 3.4 18:40:01 10° SSW 18:42:42 32° SE 18:42:45 32° SE
Cosmos 304 Rocket 4.1 18:38:39 10° S 18:43:12 44° ESE 18:45:19 27° NE
SL-16 R/B 2.7 18:38:07 10° S 18:43:16 38° ESE 18:45:34 26° ENE
SKYMED 2 3.9 18:40:52 10° N 18:45:12 67° WNW 18:49:30 10° SSW
Cosmos 1151 Rocket 3.8 18:41:37 10° NNW 18:45:47 52° W 18:49:57 10° S
Cosmos 1805 Rocket 3.6 18:45:16 10° S 18:49:38 56° E 18:52:49 18° NNE
Lacrosse 5 rocket 1.1 18:46:00 10° NW 18:49:48 86° SW 18:51:53 27° SE
Timation 1 Rocket 4.2 18:45:07 10° NNW 18:51:09 74° ENE 18:57:09 10° SSE
Cosmos 2297 3.6 18:45:55 10° NNW 18:51:37 66° ENE 18:57:18 10° SE
Meteor 1-28 Rocket 3.3 18:49:56 10° N 18:53:39 71° WNW 18:57:21 10° SSW
Cosmos 1092 Rocket 4.4 18:54:57 10° SSE 19:00:46 40° E 19:05:05 18° NNE
BREEZE-M DEB (TANK) 3.0 19:04:20 10° SW 19:05:55 39° SSW 19:05:55 39° SSW
Sich 1 3.0 19:06:48 10° S 19:11:11 62° E 19:11:18 62° E
OTV 4 3.4 19:10:49 10° SW 19:11:41 11° SSW 19:12:18 10° S
Lacrosse 4 Rocket 3.3 19:11:50 10° NNW 19:13:07 18° N 19:13:07 18° N
Cosmos 1633 Rocket 3.4 19:11:33 10° S 19:14:59 49° SE 19:14:59 49° SE
SJ-6B 3.6 19:16:14 10° S 19:20:13 54° W 19:24:17 10° NNW
CZ-3A R/B 2.8 19:18:57 10° NW 19:23:40 80° SW 19:26:00 34° SE
ALOS 2.2 19:21:50 10° SSE 19:26:31 88° W 19:31:13 10° NNW
FengYun 1-2 T 4.1 19:21:36 10° SSE 19:27:11 88° WSW 19:32:45 10° NNW
CZ-4C R/B 4.3 19:23:21 10° NNW 19:27:44 18° NNE 19:27:53 18° NNE
Cosmos 44 4.3 19:23:29 10° WSW 19:28:30 46° NW 19:30:32 30° N
FENGYUN 3A 3.5 19:23:59 10° SSE 19:29:21 89° WSW 19:34:46 10° NNW
Cosmos 1703 4.2 19:28:07 10° SSW 19:31:53 46° WNW 19:32:53 37° NW
Cosmos 1461 3.6 19:28:17 10° SSW 19:31:20 47° SSW 19:31:20 47° SSW
Resurs 01 Rocket 1.6 19:32:39 75° SSW 19:32:56 80° WSW 19:37:24 10° NNW
Cosmos 1707 Rocket 4.4 19:32:15 10° NNW 19:36:26 47° W 19:40:35 10° SSW
Cosmos 2333 Rocket 3.8 19:35:55 10° WSW 19:40:51 30° NW 19:45:00 14° N
USA 215 4.1 19:36:43 12° SSE 19:42:28 47° SW 19:48:46 10° WNW
ATLAS 5 CENTAUR R/B 4.1 19:38:53 10° NNW 19:41:11 17° N 19:41:11 17° N
Cosmos 1626 3.7 19:40:59 10° SSW 19:43:34 34° WSW 19:43:34 34° WSW
ATLAS 3B R/B 4.5 19:43:55 10° NNW 19:48:18 17° NNE 19:48:28 17° NNE
Cosmos 1666 Rocket 4.4 19:44:20 10° SSW 19:48:32 48° WNW 19:48:35 48° WNW
Cosmos 2219 Rocket 4.3 19:45:36 10° W 19:49:53 22° NW 19:54:02 10° N
Spot 2 Rocket 4.3 19:53:30 10° S 19:58:24 50° W 20:03:18 10° NNW
Lacrosse 5 4.1 20:09:34 10° NW 20:11:23 17° NNW 20:11:23 17° NNW
Cosmos 2237 Rocket 4.4 20:18:19 10° W 20:22:25 20° NW 20:24:49 16° NNW
Cosmos 2369 Rocket 4.3 20:20:41 10° NNW 20:22:03 18° NNW 20:22:03 18° NNW
USA 229 DEB 4.2 20:19:33 10° SW 20:24:31 52° SW 20:24:31 52° SW
USA 229 4.2 20:19:39 10° SW 20:24:33 51° SW 20:24:33 51° SW
SL-16 R/B 3.5 20:22:12 10° WSW 20:27:22 36° NW 20:27:31 36° NW
Lacrosse 5 rocket 4.5 20:27:16 10° WSW 20:27:41 11° WSW 20:27:41 11° WSW
